Presure
143 104 140 119 159 144 102 134 79 140 127 165 102 104 92 121 156 139 113 101 114 149 117 97 162 148 112 100 126 140 140 158 126 130 119 177 181 180 94 156 96 97 96
149 116 154 145 122 147 167 159 144 155 80 153 91 146 164 137 84 91 122 98 98 92 140 134 146 98 132 134 131 141 138 140 138 125 133 136 181 94 93 95 96 105 141
171 129 77 146 144 166 156 166 169 170 160 151 124 144 119 149 104 161 154 129 165 134 124 125 99 102 122 154 100 132 134 138 137 94 120 161 95 94 93 94 94 95 96
80 82 133 120 78 79 82 182 161 170 177 128 168 160 165 106 110 180 123 165 110 127 120 111 142 117 105 129 117 111 123 132 110 117 123 100 90 135 95 129 89 92 93
104 86 84 86 82 88 78 81 96 109 185 149 79 155 174 150 172 152 149 179 75 92 94 136 161 170 110 158 101 125 130 132 134 133 125 107 138 130 92 94 171 165 96
204 201 198 185 88 85 72 78 158 92 209 176 197 192 179 124 180 108 154 188 108 103 92 137 104 161 154 110 149 112 176 149 96 116 132 134 139 98 131 135 90 95 99
225 221 237 210 174 183 177 180 198 175 85 173 136 179 152 139 189 129 178 111 111 163 160 136 169 137 191 113 148 164 142 170 175 149 127 108 98 124 128 129 153 156 136
236 251 225 231 225 207 211 220 214 151 196 153 153 132 186 167 100 130 172 185 102 162 168 92 102 142 152 123 154 101 116 116 121 142 125 119 120 126 133 125 144 110 124
201 198 207 212 207 216 227 224 228 232 207 205 191 200 93 96 191 97 111 166 126 134 94 164 187 132 126 110 124 160 94 126 103 105 114 127 119 127 121 122 117 127 128
205 203 193 198 213 226 215 221 232 260 237 260 225 189 203 207 184 190 94 87 135 206 180 96 95 93 170 157 153 104 134 153 98 189 113 117 116 117 120 126 129 108 124
208 198 228 202 199 213 204 229 225 237 240 287 249 246 225 186 202 202 192 133 159 95 134 134 186 176 161 147 94 145 165 146 100 111 150 105 109 128 131 129 124 126 167
194 218 177 194 225 189 206 219 206 225 241 230 259 262 236 255 215 193 210 213 196 140 96 137 208 120 186 167 189 158 140 173 123 104 108 187 144 144 168 129 118 118 122
201 227 219 221 180 202 219 207 203 248 215 221 217 243 278 226 247 222 201 200 218 207 204 135 109 100 172 119 170 174 141 181 139 144 177 141 182 175 162 157 184 145 127
198 198 199 217 163 215 198 211 216 185 182 213 234 242 254 262 216 255 226 218 209 221 221 206 184 89 90 162 126 164 172 174 104 173 147 175 145 96 157 126 166 141 127
190 228 178 185 213 190 208 174 183 178 209 220 226 212 277 257 253 238 236 224 215 223 211 202 219 211 182 184 90 148 168 174 171 151 167 137 189 178 161 138 127 122 153
197 163 199 206 171 194 225 205 271 265 219 217 232 240 261 268 246 257 230 232 229 224 218 223 208 198 209 211 158 179 94 155 142 104 111 99 174 119 126 145 121 167 163
202 212 202 221 206 169 294 273 301 286 242 249 254 277 229 266 267 234 262 227 229 222 224 223 227 226 204 208 215 209 188 179 103 153 94 120 89 149 96 99 198 194 96
200 211 202 200 201 229 274 225 295 286 270 243 242 262 279 267 208 260 251 262 227 234 225 221 214 225 230 226 221 208 211 184 98 122 172 174 89 91 111 87 101 159 190
191 186 205 206 210 148 225 363 330 319 278 247 266 288 285 277 261 261 187 252 259 234 222 237 229 211 212 222 227 229 223 209 208 180 180 131 89 166 87 130 86 179 91
191 198 211 198 214 227 251 361 351 339 283 293 293 293 275 280 268 258 254 224 248 254 246 226 274 228 209 209 216 217 219 224 221 74 215 206 91 90 167 94 192 94 95
199 187 124 194 202 222 303 328 355 254 337 312 298 313 284 276 277 271 262 250 240 250 252 248 226 262 225 212 206 218 212 208 195 226 220 203 193 173 206 206 204 84 186
189 184 197 193 225 215 295 328 353 337 328 316 327 323 306 292 293 270 258 266 250 233 244 250 252 223 231 231 216 207 210 211 204 197 193 188 211 203 200 198 202 206 194
192 186 202 204 208 232 292 312 341 300 321 319 320 313 317 261 291 280 263 262 258 264 254 241 247 239 226 218 235 222 221 210 211 202 202 212 203 193 160 189 199 193 206
195 199 215 216 207 236 290 309 324 328 319 315 307 305 321 329 301 286 277 260 254 240 254 244 260 244 241 236 217 252 221 220 211 215 203 201 199 192 192 192 195 193 206
208 199 203 209 209 242 295 362 320 297 326 317 307 303 312 287 267 284 285 277 256 263 264 212 246 243 260 247 245 264 250 225 219 212 216 206 203 200 196 193 198 194 199
184 191 181 208 224 239 315 356 331 289 334 320 313 306 298 298 298 283 307 285 278 259 263 233 250 235 244 247 256 236 261 247 239 216 211 222 217 214 206 198 199 194 192
Wind_Speed
55 45 52 49 63 56 29 53 28 53 56 62 37 35 33 51 54 53 44 37 41 51 42 31 48 48 35 31 39 41 39 43 40 33 34 46 45 43 25 37 24 23 24
59 51 57 57 51 60 68 61 59 62 29 60 35 56 53 63 27 31 55 34 34 30 47 50 49 32 47 47 44 45 41 41 41 40 39 38 48 28 27 27 26 27 38
78 58 31 59 63 71 65 70 69 68 65 62 66 61 62 60 44 62 63 46 59 57 51 49 35 36 46 50 36 45 43 43 43 33 37 44 31 30 29 28 28 28 28
42 44 63 58 34 36 36 80 70 72 74 65 66 67 69 43 53 63 56 66 44 58 50 43 57 46 39 50 44 41 44 45 39 40 40 37 31 38 32 39 29 30 29
55 51 49 51 44 48 34 36 37 44 78 62 36 62 75 74 57 69 61 68 31 39 39 59 62 63 46 58 40 49 50 49 47 46 44 39 42 39 34 34 48 46 32
69 73 75 70 58 56 23 38 73 45 67 72 77 80 75 56 76 43 65 72 51 47 44 57 46 63 62 49 61 45 66 57 41 44 47 45 44 41 42 40 33 35 35
57 62 65 73 72 74 74 75 84 77 50 76 63 76 74 71 78 78 79 60 49 71 67 68 71 59 73 52 62 65 59 64 65 57 47 43 41 45 44 43 49 49 44
23 25 38 40 46 62 73 77 83 73 84 72 75 64 83 74 56 64 80 84 57 74 78 50 50 62 65 60 67 49 52 50 48 57 50 48 48 47 47 47 50 43 45
40 42 36 34 47 41 42 52 58 77 86 90 84 90 62 57 86 56 57 81 68 77 56 73 80 69 60 61 60 69 43 58 50 51 50 54 51 52 50 50 48 47 47
29 38 50 42 32 31 44 46 46 46 65 77 96 84 89 94 87 92 57 56 70 84 85 58 58 56 71 67 78 58 65 71 50 74 55 55 54 54 53 54 54 50 50
23 37 28 35 50 35 51 38 47 44 51 59 76 88 100 87 93 103 95 77 82 60 72 68 88 82 78 72 53 72 71 68 54 60 71 52 53 63 63 59 54 54 62
43 37 56 52 34 67 53 46 66 46 44 60 58 70 79 88 103 99 104 110 97 78 61 74 84 66 89 78 85 80 68 74 66 54 56 75 69 67 69 64 56 56 57
37 50 42 46 73 49 43 64 71 40 71 67 76 62 68 83 91 105 106 99 104 100 100 77 67 66 82 66 84 86 79 80 75 76 75 70 78 74 71 71 74 67 60
43 39 43 49 75 50 68 52 60 81 78 71 57 54 63 74 87 87 104 114 104 107 106 101 92 62 59 89 71 84 84 84 69 81 85 78 79 45 74 60 71 68 61
51 64 62 58 46 63 54 92 74 84 68 60 68 73 64 68 80 85 95 107 109 109 103 95 100 99 97 98 62 81 88 88 88 89 92 71 86 82 77 69 63 61 67
54 72 49 53 77 72 65 63 64 57 70 64 64 55 65 67 77 84 93 99 101 110 109 108 100 98 101 101 89 96 64 81 77 60 59 52 86 58 59 69 60 71 71
58 67 58 80 59 80 80 72 70 60 52 50 50 57 72 68 73 81 85 96 102 106 107 109 108 106 102 100 99 99 103 95 64 86 53 65 51 79 58 60 86 82 54
62 75 68 62 60 83 92 67 70 61 54 51 51 53 69 72 71 80 81 87 99 104 107 107 105 103 100 101 102 97 98 90 57 69 93 99 54 60 65 50 56 77 81
65 62 76 79 80 61 76 61 63 63 54 52 60 73 75 79 78 82 73 84 86 99 102 105 110 105 102 101 99 96 100 103 102 98 99 78 56 89 57 73 53 87 59
71 77 87 77 91 97 100 62 59 60 53 63 72 76 73 81 83 82 85 80 85 87 96 102 90 107 104 104 103 99 100 97 96 49 97 106 63 65 96 60 104 67 67
83 77 64 79 84 98 83 68 59 50 59 65 69 73 78 78 85 88 90 91 88 88 88 93 103 92 109 107 106 102 103 101 103 94 97 102 104 91 98 97 96 45 98
78 81 87 83 107 92 89 68 59 55 55 58 60 67 72 76 76 85 83 93 93 89 92 89 89 103 99 111 113 106 109 107 102 106 105 105 101 103 103 101 100 97 102
81 83 92 96 96 107 93 73 58 58 55 56 55 58 64 69 74 78 84 89 91 92 91 89 89 96 104 104 98 114 118 111 109 110 108 103 102 103 86 106 105 96 99
85 90 101 106 97 114 93 75 62 56 53 54 53 54 59 67 71 75 80 86 86 80 92 85 94 92 96 98 104 95 110 115 118 118 111 108 106 108 108 109 110 106 103
95 90 96 102 103 115 88 57 63 59 54 53 54 53 54 59 68 72 79 84 81 91 96 82 91 86 90 93 94 91 96 108 118 121 119 114 115 112 111 108 111 110 110
85 91 91 110 114 111 82 60 60 59 56 55 54 54 55 58 60 65 74 83 90 83 93 87 96 81 87 85 87 92 92 97 111 118 118 119 112 120 119 112 112 109 110
Wind_Direction
252 262 257 257 262 260 256 247 259 238 244 266 247 250 238 249 254 253 249 242 244 252 248 235 247 250 243 231 251 256 252 249 250 248 242 250 246 247 251 243 257 259 264
258 257 259 261 258 253 265 261 251 259 252 255 250 253 258 252 254 247 252 245 240 236 246 250 249 233 250 253 252 253 253 251 251 250 242 251 246 246 248 255 258 260 251
263 266 265 264 263 269 261 270 268 266 261 262 246 247 256 256 246 252 253 246 248 248 246 244 237 236 247 246 234 250 250 251 250 242 249 249 245 245 246 251 256 260 264
257 257 263 262 254 256 259 269 260 264 268 253 262 262 264 258 253 255 251 244 249 247 239 245 249 247 239 248 245 241 247 248 246 247 247 244 246 252 252 250 251 257 261
258 260 264 262 268 257 275 268 265 263 267 259 260 258 262 251 250 249 253 247 239 255 252 247 249 245 245 251 240 247 248 247 247 248 247 248 251 251 251 256 254 255 259
268 267 267 265 263 266 262 265 259 262 258 253 261 261 256 250 257 248 251 243 248 246 251 247 247 251 249 247 243 247 254 248 243 246 249 249 250 250 252 255 255 262 264
267 265 268 262 254 256 256 259 263 256 260 261 259 258 249 253 252 251 255 257 249 243 245 257 249 250 251 247 250 251 246 252 251 248 251 248 247 252 253 253 258 259 258
284 284 269 266 264 257 259 260 260 259 257 255 257 256 259 256 248 253 249 248 245 248 253 248 243 248 247 246 248 245 247 246 248 247 252 252 253 256 254 255 256 257 259
259 259 262 254 254 257 258 254 260 257 254 254 253 254 261 258 255 245 249 251 254 255 245 251 253 258 251 246 243 248 246 247 247 247 247 254 252 256 252 253 252 255 257
260 256 253 258 278 274 256 260 261 276 254 255 252 250 253 253 250 251 247 248 247 246 251 253 251 255 248 252 248 250 249 247 252 255 248 248 249 251 252 253 255 252 254
269 263 321 263 259 267 250 277 260 261 259 266 253 250 250 249 252 252 248 253 249 246 249 250 252 254 247 254 255 254 256 249 255 252 248 254 251 251 253 253 251 254 255
282 315 271 260 292 262 256 261 248 259 263 245 261 252 246 244 249 251 252 248 246 250 247 249 243 252 253 246 255 246 252 255 254 254 254 255 250 251 255 250 252 252 252
265 339 328 306 271 255 288 275 259 295 250 247 244 250 248 243 240 245 251 251 251 246 246 252 252 247 250 249 249 252 252 253 256 250 255 255 256 256 252 250 260 254 254
295 283 281 316 285 302 259 276 258 275 270 249 251 252 251 242 240 236 243 249 251 252 251 246 245 246 249 248 253 251 251 252 245 254 254 251 256 253 249 248 254 253 254
311 339 299 298 314 274 288 275 281 277 278 256 263 261 248 245 238 237 237 242 248 250 248 245 249 245 245 246 248 248 250 250 253 252 256 250 256 252 253 252 257 255 258
319 272 304 318 268 287 309 273 294 290 263 273 252 253 257 245 240 238 238 237 241 245 249 249 245 244 245 245 245 247 248 248 251 245 246 250 254 253 252 256 255 256 254
331 338 322 335 312 279 323 315 299 294 277 278 272 264 243 248 241 238 237 238 236 240 244 249 249 247 245 245 247 245 246 248 246 249 248 248 249 254 250 251 259 259 259
330 339 327 316 311 334 329 293 302 290 280 270 269 267 250 245 252 239 238 237 238 235 238 242 248 248 247 245 247 245 247 247 241 245 247 253 248 254 255 256 255 256 259
323 315 331 327 328 306 315 297 295 286 278 268 264 253 250 246 242 240 257 237 236 237 238 235 238 244 248 247 247 244 245 247 248 250 250 251 251 260 256 259 259 263 260
326 327 337 326 333 333 331 300 290 281 281 267 261 256 251 249 242 241 239 245 238 235 236 237 238 237 241 247 247 246 245 242 244 248 249 250 248 251 251 257 259 260 260
337 321 293 324 324 333 326 313 291 305 276 267 262 257 252 249 247 244 235 236 236 238 235 234 236 236 235 238 246 243 244 243 244 237 240 249 251 252 252 251 252 259 259
325 319 330 321 334 328 328 313 294 293 279 271 264 258 254 251 248 245 245 241 234 233 236 234 234 236 237 234 236 242 244 244 243 244 245 247 247 250 252 252 251 251 253
330 319 331 330 328 330 328 318 298 301 282 274 265 259 252 248 248 244 243 243 244 243 240 237 233 233 236 238 239 236 239 241 240 241 244 242 245 250 253 255 257 250 254
331 331 333 331 327 331 327 319 306 292 284 277 270 264 254 243 242 244 242 242 244 245 246 245 237 235 234 235 238 237 234 235 242 240 242 244 244 247 249 254 256 258 257
337 331 333 331 328 331 324 301 306 304 284 278 271 264 257 254 249 244 240 240 241 243 244 246 246 248 240 235 235 236 236 235 236 242 243 244 244 246 249 250 252 257 261
322 326 319 333 332 330 323 302 303 304 285 279 273 268 263 258 251 249 240 239 241 241 244 245 244 241 243 243 241 238 236 236 233 237 245 247 245 246 246 250 251 254 257